HULIANWANG DIGUI-83

Last updated on Tue Oct 28 2025 00:02:05 GMT+0000 (Coordinated Universal Time)

1 65818U 25220B 25299.78523305 -.00000104 00000+0 -18750-3 0 9999 2 65818 86.4956 122.8724 0001134 99.6141 260.5136 13.50448227 3993

Satellite not in orbit

HULIANWANG DIGUI-83